Simultaneous Nadir Overpasses (SNOs) Predictions

Prediction of SNOs between METOP-A and TERRA Satellite Orbit:

Table of predicted SNOs for the next 14.0 days since TLE Epoch: 11/21/2015
Index Date (METOP-A) Time (METOP-A) Lat,Lon (METOP-A) SZA (METOP-A ) Date (TERRA) Time (TERRA) Lat,Lon (TERRA) SZA (TERRA ) Distance(km) Time Diff (sec)
1 11/21/2015 07:36:08 -81.28, -67.36 75.88 11/21/2015 07:37:01 -81.27, -67.45 75.87 1.76 53
2 11/21/2015 08:26:47 81.29, 100.52 104.20 11/21/2015 08:26:26 81.30, 100.67 104.21 2.80 21
3 11/24/2015 03:10:33 -81.28, -0.91 75.30 11/24/2015 03:11:15 -81.27, -0.97 75.29 1.39 42
4 11/24/2015 04:01:12 81.29, 166.94 104.78 11/24/2015 04:00:40 81.30, 167.12 104.79 3.20 32
5 11/26/2015 22:44:57 -81.29, 65.89 74.73 11/26/2015 22:45:28 -81.29, 65.74 74.73 2.60 31
6 11/26/2015 23:35:37 81.29,-126.68 105.30 11/26/2015 23:34:54 81.29,-126.57 105.29 1.82 43
7 11/29/2015 18:19:22 -81.28, 131.87 74.31 11/29/2015 18:19:41 -81.27, 131.94 74.30 1.34 19
8 11/29/2015 19:10:00 81.29, -59.95 105.80 11/29/2015 19:09:06 81.30, -60.02 105.77 1.43 54
9 12/02/2015 13:53:46 -81.28,-161.42 73.86 12/02/2015 13:53:53 -81.30,-161.24 73.83 3.18 7




NCC Satellite Simultaneous Nadir Overpasses (SNOs) Prediction Service
